Simultaneous Nadir Overpasses (SNOs) Predictions

Prediction of SNOs between METOP-A and NOAA-19 Satellite Orbit:

Table of predicted SNOs for the next 14.0 days since TLE Epoch: 10/10/2023
<
Index Date (METOP-A) Time (METOP-A) Lat,Lon (METOP-A) SZA (METOP-A ) Date (NOAA-19) Time (NOAA-19) Lat,Lon (NOAA-19) SZA (NOAA-19 ) Distance(km) Time Diff (sec)
1 10/10/2023 05:04:46 80.96, 146.07 90.14 10/10/2023 05:04:45 80.96, 146.08 90.14 0.07 1
2 10/10/2023 05:55:46 -80.96, -46.59 89.84 10/10/2023 05:55:45 -80.96, -46.59 89.84 0.07 1
3 10/10/2023 06:46:45 80.96, 120.49 90.16 10/10/2023 06:46:44 80.96, 120.50 90.16 0.07 1
4 10/10/2023 07:37:45 -80.96, -72.17 89.82 10/10/2023 07:37:44 -80.96, -72.17 89.82 0.07 1
5 10/10/2023 08:28:43 80.96, 95.29 90.22 10/10/2023 08:28:42 80.96, 95.30 90.22 0.07 1
6 10/10/2023 09:19:43 -80.96, -97.38 89.76 10/10/2023 09:19:42 -80.96, -97.38 89.76 0.07 1
7 10/10/2023 10:10:42 80.96, 69.72 90.24 10/10/2023 10:10:41 80.96, 69.72 90.24 0.07 1
8 10/10/2023 11:01:42 -80.96,-122.96 89.75 10/10/2023 11:01:41 -80.96,-122.96 89.75 0.07 1
9 10/10/2023 11:52:41 80.96, 44.14 90.26 10/10/2023 11:52:40 80.96, 44.14 90.26 0.07 1
10 10/10/2023 12:43:41 -80.96,-148.55 89.73 10/10/2023 12:43:40 -80.96,-148.54 89.73 0.07 1
11 10/10/2023 13:34:40 80.96, 18.56 90.27 10/10/2023 13:34:39 80.96, 18.57 90.27 0.07 1
12 10/10/2023 14:25:40 -80.96,-174.13 89.71 10/10/2023 14:25:39 -80.96,-174.13 89.71 0.07 1
13 10/10/2023 15:16:38 80.96, -6.64 90.33 10/10/2023 15:16:37 80.96, -6.64 90.33 0.07 1
14 10/10/2023 16:07:39 -80.96, 160.28 89.70 10/10/2023 16:07:38 -80.96, 160.29 89.70 0.07 1
15 10/10/2023 16:58:37 80.96, -32.22 90.35 10/10/2023 16:58:36 80.96, -32.21 90.35 0.07 1
16 10/10/2023 17:49:37 -80.96, 135.08 89.64 10/10/2023 17:49:36 -80.96, 135.08 89.64 0.07 1
17 10/10/2023 18:40:36 80.96, -57.80 90.37 10/10/2023 18:40:35 80.96, -57.79 90.37 0.07 1
18 10/10/2023 19:31:36 -80.96, 109.49 89.62 10/10/2023 19:31:35 -80.96, 109.50 89.62 0.07 1
19 10/10/2023 20:22:35 80.96, -83.37 90.39 10/10/2023 20:22:34 80.96, -83.37 90.39 0.07 1
20 10/10/2023 21:13:35 -80.96, 83.91 89.60 10/10/2023 21:13:34 -80.96, 83.91 89.60 0.07 1
21 10/10/2023 22:04:33 80.96,-108.57 90.45 10/10/2023 22:04:32 80.96,-108.57 90.45 0.07 1
22 10/10/2023 22:55:34 -80.96, 58.32 89.58 10/10/2023 22:55:33 -80.96, 58.33 89.58 0.07 1
23 10/10/2023 23:46:32 80.96,-134.15 90.46 10/10/2023 23:46:31 80.96,-134.15 90.46 0.07 1
24 10/11/2023 00:37:32 -80.96, 33.11 89.53 10/11/2023 00:37:31 -80.96, 33.12 89.53 0.07 1
25 10/11/2023 01:28:31 80.96,-159.73 90.48 10/11/2023 01:28:30 80.96,-159.73 90.48 0.07 1
26 10/11/2023 02:19:31 -80.96, 7.53 89.51 10/11/2023 02:19:30 -80.96, 7.53 89.51 0.07 1
27 10/11/2023 03:10:30 80.96, 174.69 90.50 10/11/2023 03:10:29 80.96, 174.70 90.50
